Home   Weather   Huntington   Past weeks
Flag for USA

Past Weather in Huntington, Indiana, USA — Yesterday and Last 2 Weeks

Now
47 °F

Partly cloudy.


Feels Like: 42 °F
Forecast: 56 / 42 °F
Wind: 12 mph from West

Location: Fort Wayne International Airport

Current Time: Oct 16, 2019 at 5:47:09 am

Latest Report: Oct 16, 2019 at 4:54 am


Visibility: 10 mi

Pressure: 29.73 "Hg

Humidity: 77%

Dew Point: 40 °F

Location of HuntingtonLocation

Past Weather in Huntington — Graph

°F

Huntington Temperature Yesterday

Maximum temperature yesterday: 72 °F (at 2:54 pm)
Minimum temperature yesterday: 35 °F (at 4:54 am)
Average temperature yesterday: 55 °F

High & Low Weather Summary for the Past Weeks

 TemperatureHumidityPressure
High89 °F (Oct 1, 3:54 pm)100% (Oct 3, 2:54 am)30.37 "Hg (Oct 3, 2:54 am)
Low32 °F (Oct 12, 7:54 am)27% (Oct 13, 3:54 pm)29.72 "Hg (Oct 15, 11:54 pm)
Average58 °F71%30.06 "Hg
* Reported Oct 1 4:54 am — Oct 16 4:37 am, Huntington. Weather by CustomWeather, © 2019

Note: Actual official high and low records may vary slightly from our data, if they occured in-between our weather recording intervals... More about our weather records

Advertising

Huntington Weather History for the Previous 24 Hours

Scroll right to see more
 ConditionsComfort  
Time TempWeatherWind HumidityBarometerVisibility
4:37 am
Wed, Oct 16
48 °FPassing clouds.13 mph80%29.74 "Hg10 mi
3:58 am49 °FPassing clouds.10 mph80%29.74 "Hg10 mi
2:54 am50 °FPassing clouds.9 mph83%29.75 "Hg10 mi
1:54 am50 °FLight rain. Fog.13 mph86%29.75 "Hg6 mi
1:01 am56 °FOvercast.13 mph81%29.74 "Hg10 mi
12:13 am61 °FMostly cloudy.14 mph87%29.72 "Hg10 mi
11:54 pm
Tue, Oct 15
61 °FOvercast.10 mph90%29.72 "Hg10 mi
10:54 pm62 °FMostly cloudy.12 mph86%29.73 "Hg10 mi
10:17 pm61 °FMostly cloudy.7 mph90%29.74 "Hg10 mi
9:54 pm61 °FLight rain. Overcast.7 mph93%29.75 "Hg7 mi
8:54 pm63 °FLight rain. Overcast.16 mph81%29.76 "Hg10 mi
7:54 pm67 °FOvercast.12 mph61%29.76 "Hg10 mi
6:54 pm68 °FPartly sunny.16 mph57%29.77 "Hg10 mi
5:54 pm69 °FPartly sunny.17 mph53%29.78 "Hg10 mi
4:54 pm71 °FOvercast.20 mph45%29.79 "Hg10 mi
3:54 pm72 °FPartly sunny.21 mph37%29.81 "Hg10 mi
2:54 pm72 °FScattered clouds.21 mph33%29.85 "Hg10 mi
1:54 pm70 °FPassing clouds.21 mph35%29.88 "Hg10 mi
12:54 pm68 °FPassing clouds.17 mph38%29.93 "Hg10 mi
11:54 am63 °FPassing clouds.15 mph41%29.98 "Hg10 mi
10:54 am57 °FPassing clouds.12 mph55%30.02 "Hg10 mi
9:54 am48 °FPassing clouds.10 mph71%30.06 "Hg10 mi
8:54 am40 °FPassing clouds.6 mph83%30.07 "Hg10 mi
7:54 am36 °FPassing clouds.No wind85%30.09 "Hg10 mi
6:54 am36 °FPassing clouds.No wind85%30.10 "Hg10 mi
5:54 am37 °FPassing clouds.3 mph86%30.10 "Hg10 mi
Weather by CustomWeather, © 2019

See weather overview